Fort Simpson, Northwest Territories

6:15 AM MDT on July 23, 2017 (GMT -0600)
Fort Simpson

Weather History for CYFS - September, 2013

Change the Weather History Date:

Wednesday, September 4, 2013

  Actual Average Record
Temperature  
Mean Temperature 63 °F -  
Max Temperature 78 °F 53 °F 78 °F (2013)
Min Temperature 48 °F 33 °F 35 °F (2002)
Degree Days  
Heating Degree Days 2    
Growing Degree Days 13 (Base 50)    
Moisture  
Dew Point 49 °F    
Average Humidity 66    
Maximum Humidity 94    
Minimum Humidity 28    
Precipitation  
Precipitation 0.00 in 0.04 in - ()
Sea Level Pressure  
Sea Level Pressure 29.56 in    
Wind  
Wind Speed 4 mph ()    
Max Wind Speed 8 mph    
Max Gust Speed -    
Visibility 15.0 miles    
Events      
Averages and records for this station are not official NWS values.
T = Trace of Precipitation, MM = Missing Value Source: Averaged Metar Reports

Daily Weather History Graph

Daily Weather History Graph

Search for Another Location

Airport or City:

Trip Planner

Search our weather history database for the weather conditions in past years. The results will help you decide how hot, cold, wet, or windy it might be!

Date:

Astronomy

Sep. 04, 2013 Rise Set
Actual Time 7:03 AM MDT 9:02 PM MDT
Civil Twilight 6:16 AM MDT 9:48 PM MDT
Nautical Twilight 5:15 AM MDT 10:49 PM MDT
Astronomical Twilight 3:53 AM MDT 12:08 AM MDT
Moon 6:24 AM MDT (9/4) 8:11 PM MDT (9/4)
Length of Visible Light 15h 32m
Length of Day
13h 58m
Waning Crescent, 1% of the Moon is Illuminated
Sep 4
Waning Crescent
Sep 5
New
Sep 12
First Quarter
Sep 19
Full
Sep 26
Last Quarter

Hourly Weather History & Observations

Time (MDT) Temp. Dew Point Humidity Pressure Visibility Wind Dir Wind Speed Gust Speed Precip Events Conditions
12:00 AM 56 °F 49 °F 72% 29.60 in 15 mi ESE 5.8 mph - -   Scattered Clouds
12:00 AM 57.2 °F 50.0 °F 77% 29.60 in 15.0 mi ESE 5.8 mph - N/A   Scattered Clouds
1:00 AM 55.4 °F 50.0 °F 82% 29.58 in 15.0 mi SSE 5.8 mph - N/A   Scattered Clouds
2:00 AM 53.6 °F 48.2 °F 82% 29.57 in 15.0 mi SSE 4.6 mph - N/A   Mostly Cloudy
3:00 AM 53.6 °F 48.2 °F 82% 29.55 in 15.0 mi SE 3.5 mph - N/A   Mostly Cloudy
4:00 AM 51.8 °F 48.2 °F 88% 29.54 in 15.0 mi SE 3.5 mph - N/A   Mostly Cloudy
5:00 AM 50.0 °F 48.2 °F 94% 29.54 in 15.0 mi SE 3.5 mph - N/A   Scattered Clouds
6:00 AM 49 °F 47 °F 92% 29.53 in 15 mi Calm Calm - -   Scattered Clouds
6:00 AM 50.0 °F 48.2 °F 94% 29.53 in 15.0 mi Calm Calm - N/A   Partly Cloudy
7:00 AM 48.2 °F 46.4 °F 93% 29.53 in 15.0 mi SSE 3.5 mph - N/A   Partly Cloudy
8:00 AM 50.0 °F 46.4 °F 87% 29.52 in 15.0 mi Calm Calm - N/A   Mostly Cloudy
9:00 AM 55.4 °F 48.2 °F 77% 29.53 in 15.0 mi SSE 2.3 mph - N/A   Mostly Cloudy
10:00 AM 57.2 °F 51.8 °F 82% 29.52 in 15.0 mi SE 2.3 mph - N/A   Mostly Cloudy
11:00 AM 62.6 °F 55.4 °F 77% 29.53 in 15.0 mi Calm Calm - N/A   Mostly Cloudy
12:00 PM 71 °F 51 °F 38% 29.53 in 15 mi WSW 8.1 mph - -   Mostly Cloudy
12:00 PM 71.6 °F 51.8 °F 50% 29.53 in 15.0 mi WSW 8.1 mph - N/A   Mostly Cloudy
1:00 PM 71.6 °F 48.2 °F 43% 29.54 in 15.0 mi WSW 8.1 mph - N/A   Mostly Cloudy
2:00 PM 73.4 °F 48.2 °F 41% 29.55 in 15.0 mi WSW 8.1 mph - N/A   Mostly Cloudy
3:00 PM 73.4 °F 50.0 °F 44% 29.56 in 15.0 mi WSW 5.8 mph - N/A   Mostly Cloudy
4:00 PM 77.0 °F 48.2 °F 36% 29.55 in 15.0 mi SW 6.9 mph - N/A   Mostly Cloudy
5:00 PM 75.2 °F 50.0 °F 41% 29.56 in 15.0 mi West 5.8 mph - N/A   Mostly Cloudy
6:00 PM 74 °F 48 °F 28% 29.58 in 15 mi WNW 5.8 mph - -   Mostly Cloudy
6:00 PM 73.4 °F 48.2 °F 41% 29.58 in 15.0 mi WNW 5.8 mph - N/A   Mostly Cloudy
7:00 PM 68.0 °F 53.6 °F 60% 29.57 in 15.0 mi SW 2.3 mph - N/A   Mostly Cloudy
8:00 PM 69.8 °F 48.2 °F 46% 29.58 in 15.0 mi SW 4.6 mph - N/A   Mostly Cloudy
9:00 PM 64.4 °F 48.2 °F 56% 29.58 in 15.0 mi Calm Calm - N/A   Partly Cloudy
10:00 PM 60.8 °F 50.0 °F 68% 29.59 in 15.0 mi Calm Calm - N/A   Partly Cloudy
11:00 PM 57.2 °F 51.8 °F 82% 29.60 in 15.0 mi Calm Calm - N/A   Partly Cloudy